QPF
0.03 0.03 0.02 0.02 0.01 0.01 0.01 0.00 0.00 0.00 0.00 0.00 0.00 0.00 0.00 0.00 0.01 0.01 0.01 0.01 0.02 0.02 0.02 0.02 0.03 0.03 0.02 0.02 0.01 0.01 0.01 0.01 0.02 0.01 0.01 0.01 0.01 0.02 0.02 0.03 0.03 0.03 0.03
0.03 0.03 0.02 0.02 0.01 0.01 0.00 0.00 0.00 0.00 0.00 0.00 0.00 0.00 0.00 0.00 0.01 0.01 0.02 0.02 0.02 0.03 0.03 0.03 0.02 0.02 0.02 0.02 0.01 0.01 0.01 0.02 0.03 0.03 0.02 0.02 0.02 0.02 0.03 0.03 0.02 0.02 0.03
0.03 0.02 0.02 0.02 0.01 0.01 0.01 0.01 0.00 0.00 0.00 0.00 0.01 0.01 0.01 0.01 0.02 0.02 0.03 0.03 0.03 0.02 0.02 0.02 0.02 0.02 0.02 0.02 0.02 0.02 0.02 0.02 0.03 0.04 0.03 0.03 0.02 0.02 0.03 0.03 0.04 0.06 0.04
0.03 0.03 0.02 0.02 0.02 0.01 0.01 0.01 0.01 0.01 0.01 0.01 0.01 0.02 0.02 0.02 0.02 0.02 0.02 0.02 0.01 0.01 0.01 0.01 0.01 0.02 0.02 0.02 0.02 0.02 0.02 0.03 0.04 0.04 0.03 0.03 0.03 0.03 0.05 0.06 0.05 0.07 0.07
0.05 0.04 0.04 0.04 0.03 0.02 0.02 0.01 0.01 0.02 0.02 0.02 0.03 0.03 0.03 0.03 0.01 0.00 0.00 0.00 0.00 0.01 0.01 0.01 0.01 0.01 0.01 0.02 0.02 0.02 0.03 0.04 0.04 0.05 0.04 0.04 0.03 0.04 0.05 0.06 0.06 0.05 0.05
0.08 0.08 0.07 0.06 0.05 0.04 0.03 0.02 0.03 0.04 0.04 0.04 0.03 0.02 0.02 0.01 0.00 0.00 0.00 0.00 0.00 0.00 0.01 0.01 0.01 0.01 0.01 0.01 0.02 0.03 0.04 0.04 0.05 0.05 0.04 0.04 0.03 0.04 0.05 0.06 0.06 0.05 0.05
0.16 0.13 0.10 0.08 0.06 0.04 0.03 0.03 0.04 0.04 0.02 0.01 0.01 0.00 0.00 0.00 0.00 0.00 0.00 0.00 0.00 0.01 0.02 0.02 0.02 0.01 0.02 0.03 0.04 0.03 0.03 0.03 0.04 0.06 0.06 0.05 0.06 0.06 0.07 0.06 0.06 0.07 0.07
0.16 0.12 0.08 0.05 0.03 0.03 0.03 0.03 0.02 0.01 0.01 0.00 0.00 0.00 0.00 0.00 0.00 0.00 0.00 0.00 0.01 0.01 0.02 0.02 0.03 0.03 0.03 0.03 0.02 0.02 0.02 0.02 0.04 0.04 0.05 0.06 0.06 0.06 0.06 0.07 0.06 0.06 0.05
0.13 0.09 0.05 0.03 0.03 0.03 0.02 0.01 0.01 0.00 0.00 0.00 0.00 0.00 0.01 0.01 0.00 0.00 0.00 0.00 0.01 0.01 0.01 0.02 0.02 0.02 0.02 0.02 0.02 0.02 0.02 0.02 0.03 0.04 0.05 0.06 0.06 0.06 0.06 0.06 0.06 0.06 0.06
0.07 0.05 0.04 0.03 0.02 0.01 0.01 0.01 0.00 0.00 0.00 0.00 0.00 0.01 0.01 0.02 0.00 0.00 0.00 0.00 0.01 0.01 0.01 0.01 0.02 0.02 0.02 0.02 0.02 0.03 0.03 0.02 0.03 0.05 0.06 0.07 0.06 0.06 0.06 0.05 0.06 0.07 0.08
0.03 0.03 0.02 0.01 0.00 0.00 0.00 0.00 0.00 0.00 0.01 0.00 0.01 0.01 0.02 0.01 0.01 0.00 0.00 0.00 0.00 0.01 0.01 0.02 0.03 0.03 0.03 0.03 0.03 0.03 0.03 0.03 0.04 0.04 0.04 0.04 0.04 0.04 0.04 0.04 0.05 0.07 0.07
0.01 0.01 0.00 0.00 0.00 0.00 0.00 0.01 0.00 0.01 0.01 0.01 0.01 0.01 0.01 0.02 0.01 0.00 0.00 0.00 0.00 0.01 0.02 0.03 0.03 0.04 0.04 0.05 0.03 0.02 0.03 0.03 0.04 0.04 0.04 0.04 0.04 0.04 0.05 0.05 0.06 0.06 0.06
0.01 0.00 0.00 0.00 0.00 0.00 0.00 0.00 0.00 0.01 0.01 0.01 0.01 0.01 0.01 0.01 0.01 0.00 0.00 0.00 0.00 0.01 0.03 0.04 0.05 0.05 0.06 0.05 0.03 0.03 0.03 0.03 0.04 0.04 0.04 0.04 0.04 0.05 0.05 0.05 0.05 0.05 0.05
0.01 0.00 0.00 0.01 0.00 0.00 0.00 0.00 0.01 0.01 0.01 0.01 0.01 0.01 0.01 0.01 0.01 0.00 0.00 0.01 0.01 0.02 0.03 0.06 0.07 0.07 0.06 0.05 0.04 0.03 0.03 0.03 0.03 0.04 0.04 0.05 0.05 0.05 0.05 0.04 0.04 0.04 0.04
0.00 0.00 0.00 0.01 0.01 0.01 0.00 0.00 0.01 0.01 0.00 0.01 0.01 0.01 0.02 0.01 0.01 0.01 0.01 0.01 0.01 0.02 0.04 0.05 0.05 0.06 0.06 0.05 0.04 0.04 0.04 0.04 0.05 0.05 0.05 0.05 0.05 0.04 0.04 0.03 0.03 0.03 0.03
0.01 0.01 0.00 0.00 0.00 0.00 0.01 0.01 0.00 0.00 0.00 0.00 0.01 0.01 0.01 0.01 0.01 0.00 0.01 0.02 0.03 0.05 0.06 0.05 0.06 0.06 0.06 0.05 0.05 0.04 0.05 0.05 0.06 0.06 0.06 0.06 0.05 0.05 0.05 0.04 0.03 0.02 0.03
0.00 0.00 0.00 0.00 0.00 0.00 0.01 0.02 0.02 0.02 0.01 0.01 0.00 0.00 0.00 0.00 0.00 0.00 0.01 0.02 0.03 0.05 0.04 0.05 0.06 0.06 0.06 0.06 0.05 0.05 0.05 0.05 0.06 0.06 0.06 0.06 0.06 0.05 0.05 0.04 0.04 0.03 0.03
0.00 0.00 0.00 0.00 0.00 0.01 0.01 0.02 0.02 0.03 0.04 0.04 0.02 0.00 0.00 0.00 0.00 0.00 0.01 0.01 0.02 0.02 0.03 0.04 0.05 0.05 0.06 0.06 0.06 0.06 0.05 0.05 0.06 0.06 0.06 0.06 0.06 0.05 0.04 0.04 0.03 0.03 0.02
0.00 0.00 0.01 0.00 0.00 0.00 0.01 0.02 0.02 0.03 0.03 0.03 0.02 0.01 0.00 0.01 0.01 0.01 0.01 0.01 0.02 0.03 0.03 0.04 0.04 0.05 0.06 0.06 0.06 0.06 0.05 0.06 0.06 0.06 0.07 0.07 0.07 0.05 0.03 0.02 0.02 0.01 0.01
0.00 0.00 0.00 0.00 0.00 0.00 0.00 0.01 0.01 0.02 0.03 0.02 0.02 0.01 0.01 0.01 0.01 0.01 0.01 0.01 0.02 0.03 0.03 0.04 0.04 0.04 0.05 0.06 0.06 0.06 0.05 0.05 0.06 0.06 0.07 0.07 0.06 0.05 0.04 0.03 0.02 0.01 0.01
0.00 0.00 0.00 0.00 0.00 0.00 0.00 0.01 0.01 0.01 0.02 0.02 0.02 0.01 0.01 0.01 0.02 0.02 0.02 0.02 0.02 0.02 0.02 0.03 0.03 0.03 0.03 0.04 0.05 0.06 0.05 0.06 0.06 0.07 0.07 0.07 0.06 0.05 0.04 0.02 0.01 0.00 0.00
0.00 0.00 0.00 0.00 0.00 0.00 0.00 0.00 0.01 0.01 0.01 0.01 0.01 0.01 0.01 0.01 0.01 0.02 0.02 0.02 0.02 0.02 0.02 0.02 0.02 0.03 0.03 0.03 0.04 0.05 0.05 0.05 0.06 0.06 0.07 0.07 0.05 0.04 0.03 0.01 0.01 0.00 0.00
0.00 0.00 0.00 0.00 0.00 0.00 0.00 0.00 0.00 0.00 0.01 0.01 0.01 0.01 0.01 0.02 0.02 0.03 0.03 0.03 0.03 0.02 0.02 0.02 0.02 0.03 0.03 0.03 0.03 0.03 0.03 0.04 0.05 0.06 0.07 0.07 0.05 0.04 0.02 0.01 0.00 0.00 0.00
0.00 0.00 0.00 0.00 0.00 0.00 0.00 0.00 0.00 0.00 0.00 0.00 0.00 0.00 0.01 0.02 0.03 0.04 0.04 0.03 0.02 0.02 0.02 0.02 0.02 0.02 0.02 0.02 0.02 0.01 0.01 0.01 0.02 0.05 0.07 0.08 0.05 0.04 0.02 0.01 0.00 0.00 0.00
0.00 0.00 0.00 0.00 0.00 0.00 0.00 0.00 0.00 0.00 0.00 0.00 0.00 0.00 0.00 0.01 0.02 0.02 0.03 0.03 0.02 0.02 0.02 0.01 0.01 0.01 0.01 0.01 0.00 0.00 0.00 0.01 0.01 0.02 0.05 0.07 0.05 0.03 0.02 0.01 0.00 0.00 0.00
0.00 0.00 0.00 0.00 0.00 0.00 0.00 0.00 0.00 0.00 0.00 0.00 0.00 0.00 0.00 0.00 0.01 0.01 0.02 0.02 0.02 0.02 0.02 0.02 0.01 0.01 0.00 0.00 0.00 0.00 0.00 0.00 0.00 0.00 0.02 0.06 0.04 0.03 0.02 0.01 0.00 0.00 0.00
MSLP
1014.88 1015.13 1015.37 1015.63 1015.91 1016.19 1016.48 1016.75 1017.01 1017.23 1017.43 1017.59 1017.71 1017.79 1017.84 1017.85 1017.84 1017.82 1017.80 1017.77 1017.75 1017.74 1017.73 1017.72 1017.71 1017.69 1017.65 1017.59 1017.50 1017.39 1017.23 1017.02 1016.76 1016.42 1016.02 1015.54 1015.00 1014.42 1013.83 1013.25 1012.71 1012.23 1011.83
1015.40 1015.66 1015.90 1016.13 1016.37 1016.60 1016.83 1017.04 1017.24 1017.42 1017.57 1017.69 1017.78 1017.85 1017.88 1017.89 1017.87 1017.84 1017.79 1017.72 1017.64 1017.54 1017.44 1017.34 1017.23 1017.13 1017.03 1016.94 1016.85 1016.76 1016.66 1016.52 1016.33 1016.08 1015.74 1015.31 1014.80 1014.22 1013.61 1012.98 1012.37 1011.82 1011.33
1015.98 1016.27 1016.51 1016.71 1016.90 1017.07 1017.23 1017.38 1017.52 1017.64 1017.75 1017.84 1017.92 1017.98 1018.03 1018.04 1018.03 1017.99 1017.92 1017.80 1017.65 1017.47 1017.27 1017.05 1016.83 1016.63 1016.45 1016.31 1016.20 1016.12 1016.05 1015.96 1015.84 1015.64 1015.36 1014.98 1014.49 1013.92 1013.29 1012.64 1011.98 1011.37 1010.83
1016.64 1016.93 1017.16 1017.33 1017.47 1017.57 1017.66 1017.74 1017.81 1017.89 1017.97 1018.05 1018.13 1018.21 1018.27 1018.31 1018.31 1018.27 1018.18 1018.02 1017.80 1017.53 1017.22 1016.88 1016.55 1016.23 1015.96 1015.75 1015.60 1015.50 1015.43 1015.37 1015.27 1015.11 1014.87 1014.51 1014.04 1013.48 1012.85 1012.18 1011.51 1010.88 1010.31
1017.32 1017.60 1017.80 1017.93 1018.00 1018.04 1018.06 1018.08 1018.10 1018.14 1018.20 1018.28 1018.38 1018.48 1018.57 1018.64 1018.66 1018.62 1018.51 1018.31 1018.03 1017.67 1017.25 1016.80 1016.35 1015.93 1015.56 1015.27 1015.06 1014.92 1014.83 1014.75 1014.65 1014.50 1014.26 1013.90 1013.44 1012.89 1012.27 1011.60 1010.95 1010.32 1009.76
1017.97 1018.22 1018.38 1018.45 1018.47 1018.44 1018.41 1018.37 1018.35 1018.37 1018.42 1018.51 1018.62 1018.75 1018.87 1018.96 1019.00 1018.96 1018.83 1018.59 1018.24 1017.81 1017.30 1016.75 1016.20 1015.68 1015.22 1014.85 1014.57 1014.37 1014.23 1014.12 1013.99 1013.81 1013.55 1013.19 1012.74 1012.19 1011.58 1010.95 1010.32 1009.74 1009.22
1018.54 1018.74 1018.84 1018.86 1018.83 1018.75 1018.67 1018.60 1018.56 1018.57 1018.62 1018.71 1018.84 1018.99 1019.12 1019.22 1019.26 1019.20 1019.04 1018.76 1018.36 1017.86 1017.28 1016.66 1016.03 1015.44 1014.91 1014.46 1014.12 1013.86 1013.66 1013.50 1013.33 1013.11 1012.83 1012.45 1011.99 1011.46 1010.88 1010.28 1009.71 1009.18 1008.73
1018.98 1019.11 1019.16 1019.14 1019.07 1018.97 1018.87 1018.78 1018.74 1018.74 1018.79 1018.89 1019.02 1019.16 1019.29 1019.37 1019.38 1019.29 1019.09 1018.77 1018.32 1017.77 1017.14 1016.47 1015.80 1015.15 1014.58 1014.09 1013.69 1013.39 1013.14 1012.93 1012.71 1012.46 1012.15 1011.77 1011.31 1010.80 1010.26 1009.72 1009.21 1008.75 1008.36
1019.26 1019.33 1019.34 1019.30 1019.22 1019.12 1019.02 1018.95 1018.91 1018.91 1018.97 1019.05 1019.16 1019.27 1019.36 1019.40 1019.36 1019.22 1018.97 1018.60 1018.11 1017.53 1016.87 1016.18 1015.49 1014.83 1014.24 1013.73 1013.32 1012.98 1012.71 1012.46 1012.22 1011.95 1011.62 1011.24 1010.80 1010.33 1009.84 1009.36 1008.92 1008.52 1008.19
1019.39 1019.42 1019.42 1019.38 1019.31 1019.24 1019.17 1019.13 1019.11 1019.12 1019.17 1019.24 1019.31 1019.37 1019.40 1019.36 1019.25 1019.04 1018.73 1018.31 1017.79 1017.18 1016.52 1015.83 1015.15 1014.51 1013.93 1013.43 1013.02 1012.68 1012.39 1012.14 1011.89 1011.61 1011.30 1010.94 1010.54 1010.11 1009.68 1009.26 1008.88 1008.54 1008.25
1019.39 1019.42 1019.42 1019.41 1019.39 1019.37 1019.36 1019.35 1019.37 1019.40 1019.44 1019.48 1019.50 1019.50 1019.44 1019.32 1019.12 1018.84 1018.46 1017.98 1017.43 1016.82 1016.16 1015.50 1014.84 1014.24 1013.69 1013.22 1012.83 1012.51 1012.23 1011.98 1011.75 1011.49 1011.20 1010.88 1010.53 1010.16 1009.79 1009.43 1009.11 1008.82 1008.55
1019.33 1019.37 1019.42 1019.46 1019.50 1019.54 1019.59 1019.65 1019.70 1019.75 1019.79 1019.80 1019.77 1019.69 1019.55 1019.34 1019.05 1018.69 1018.24 1017.73 1017.15 1016.53 1015.89 1015.26 1014.65 1014.08 1013.58 1013.14 1012.78 1012.48 1012.23 1012.00 1011.78 1011.55 1011.30 1011.03 1010.73 1010.42 1010.12 1009.82 1009.54 1009.29 1009.04
1019.26 1019.33 1019.42 1019.52 1019.64 1019.76 1019.88 1020.00 1020.09 1020.17 1020.20 1020.19 1020.11 1019.97 1019.76 1019.47 1019.10 1018.67 1018.17 1017.62 1017.02 1016.41 1015.79 1015.18 1014.61 1014.08 1013.62 1013.22 1012.88 1012.60 1012.36 1012.15 1011.95 1011.75 1011.54 1011.31 1011.07 1010.81 1010.56 1010.32 1010.09 1009.86 1009.64
1019.22 1019.33 1019.47 1019.63 1019.81 1020.00 1020.18 1020.36 1020.50 1020.60 1020.64 1020.62 1020.51 1020.32 1020.05 1019.70 1019.28 1018.80 1018.26 1017.69 1017.09 1016.48 1015.88 1015.30 1014.76 1014.27 1013.83 1013.44 1013.11 1012.84 1012.60 1012.39 1012.20 1012.01 1011.82 1011.62 1011.42 1011.22 1011.02 1010.82 1010.63 1010.44 1010.25
1019.25 1019.38 1019.55 1019.75 1019.98 1020.22 1020.46 1020.68 1020.87 1021.00 1021.06 1021.03 1020.91 1020.71 1020.41 1020.03 1019.57 1019.07 1018.51 1017.93 1017.34 1016.75 1016.17 1015.62 1015.09 1014.62 1014.18 1013.80 1013.46 1013.17 1012.91 1012.68 1012.47 1012.27 1012.08 1011.90 1011.72 1011.55 1011.39 1011.23 1011.09 1010.95 1010.79
1019.34 1019.47 1019.65 1019.87 1020.12 1020.39 1020.67 1020.92 1021.14 1021.30 1021.39 1021.38 1021.27 1021.07 1020.77 1020.39 1019.94 1019.43 1018.89 1018.32 1017.74 1017.17 1016.62 1016.08 1015.57 1015.10 1014.66 1014.26 1013.89 1013.56 1013.26 1012.98 1012.73 1012.50 1012.29 1012.09 1011.91 1011.75 1011.62 1011.50 1011.40 1011.31 1011.22
1019.47 1019.58 1019.75 1019.96 1020.21 1020.49 1020.78 1021.06 1021.30 1021.49 1021.60 1021.63 1021.55 1021.37 1021.10 1020.74 1020.31 1019.83 1019.32 1018.78 1018.23 1017.69 1017.16 1016.64 1016.15 1015.67 1015.22 1014.79 1014.39 1014.01 1013.64 1013.31 1012.99 1012.71 1012.45 1012.22 1012.02 1011.86 1011.73 1011.64 1011.59 1011.55 1011.54
1019.62 1019.70 1019.83 1020.01 1020.24 1020.51 1020.80 1021.09 1021.35 1021.57 1021.71 1021.77 1021.73 1021.60 1021.37 1021.05 1020.67 1020.23 1019.76 1019.26 1018.76 1018.25 1017.75 1017.26 1016.78 1016.30 1015.84 1015.39 1014.94 1014.50 1014.08 1013.67 1013.29 1012.93 1012.61 1012.33 1012.10 1011.91 1011.78 1011.71 1011.68 1011.71 1011.77
1019.78 1019.81 1019.89 1020.04 1020.23 1020.48 1020.76 1021.05 1021.33 1021.56 1021.74 1021.84 1021.85 1021.76 1021.59 1021.33 1021.00 1020.61 1020.19 1019.74 1019.28 1018.81 1018.35 1017.89 1017.42 1016.96 1016.49 1016.02 1015.54 1015.06 1014.58 1014.11 1013.65 1013.22 1012.84 1012.50 1012.21 1011.99 1011.85 1011.77 1011.77 1011.83 1011.95
1019.93 1019.91 1019.95 1020.05 1020.22 1020.44 1020.70 1020.99 1021.28 1021.53 1021.74 1021.88 1021.94 1021.90 1021.78 1021.57 1021.30 1020.97 1020.60 1020.20 1019.78 1019.36 1018.93 1018.50 1018.06 1017.61 1017.15 1016.67 1016.18 1015.66 1015.14 1014.62 1014.10 1013.61 1013.16 1012.76 1012.42 1012.16 1011.99 1011.90 1011.90 1011.98 1012.14
1020.07 1020.02 1020.02 1020.08 1020.22 1020.42 1020.68 1020.96 1021.25 1021.53 1021.76 1021.93 1022.03 1022.04 1021.97 1021.82 1021.59 1021.31 1020.98 1020.63 1020.26 1019.87 1019.48 1019.08 1018.67 1018.24 1017.80 1017.32 1016.82 1016.29 1015.75 1015.19 1014.64 1014.10 1013.59 1013.14 1012.76 1012.46 1012.24 1012.13 1012.11 1012.19 1012.36
1020.23 1020.14 1020.12 1020.16 1020.28 1020.47 1020.71 1020.99 1021.28 1021.57 1021.83 1022.03 1022.16 1022.21 1022.18 1022.07 1021.89 1021.64 1021.36 1021.04 1020.70 1020.34 1019.98 1019.61 1019.22 1018.82 1018.39 1017.93 1017.44 1016.91 1016.36 1015.79 1015.21 1014.65 1014.11 1013.62 1013.20 1012.86 1012.61 1012.47 1012.42 1012.47 1012.62
1020.41 1020.31 1020.27 1020.30 1020.41 1020.58 1020.82 1021.09 1021.39 1021.69 1021.96 1022.18 1022.34 1022.42 1022.42 1022.34 1022.18 1021.97 1021.71 1021.42 1021.10 1020.77 1020.42 1020.07 1019.70 1019.31 1018.90 1018.46 1017.98 1017.47 1016.92 1016.35 1015.78 1015.20 1014.66 1014.15 1013.71 1013.34 1013.07 1012.89 1012.81 1012.83 1012.94
1020.64 1020.53 1020.49 1020.51 1020.61 1020.78 1021.00 1021.27 1021.56 1021.86 1022.13 1022.36 1022.54 1022.63 1022.66 1022.60 1022.48 1022.29 1022.05 1021.77 1021.46 1021.14 1020.80 1020.46 1020.10 1019.72 1019.32 1018.89 1018.42 1017.93 1017.40 1016.85 1016.28 1015.72 1015.18 1014.68 1014.23 1013.86 1013.56 1013.36 1013.25 1013.24 1013.30
1020.91 1020.81 1020.77 1020.79 1020.88 1021.03 1021.24 1021.50 1021.78 1022.06 1022.33 1022.57 1022.74 1022.86 1022.90 1022.86 1022.75 1022.58 1022.36 1022.09 1021.79 1021.47 1021.14 1020.79 1020.43 1020.05 1019.66 1019.23 1018.78 1018.29 1017.78 1017.25 1016.71 1016.17 1015.65 1015.17 1014.74 1014.37 1014.08 1013.86 1013.74 1013.69 1013.72
1021.24 1021.15 1021.11 1021.12 1021.20 1021.34 1021.54 1021.77 1022.03 1022.30 1022.55 1022.78 1022.96 1023.08 1023.13 1023.11 1023.03 1022.87 1022.67 1022.41 1022.12 1021.81 1021.47 1021.11 1020.75 1020.36 1019.96 1019.53 1019.08 1018.61 1018.12 1017.61 1017.09 1016.58 1016.09 1015.63 1015.22 1014.88 1014.59 1014.39 1014.25 1014.19 1014.19
Thickness
5637 5632 5626 5620 5614 5608 5602 5596 5590 5583 5576 5570 5565 5559 5552 5547 5541 5536 5530 5525 5519 5514 5508 5502 5495 5488 5482 5475 5468 5461 5455 5449 5448 5452 5446 5445 5443 5443 5445 5445 5448 5450 5453
5624 5618 5612 5605 5599 5594 5588 5582 5575 5569 5563 5557 5551 5546 5540 5535 5530 5524 5518 5513 5507 5501 5494 5488 5482 5476 5469 5462 5454 5448 5441 5435 5431 5433 5433 5431 5431 5432 5434 5437 5439 5442 5445
5611 5603 5596 5590 5584 5578 5572 5566 5560 5555 5549 5542 5537 5532 5526 5522 5517 5511 5504 5498 5492 5486 5480 5474 5468 5462 5455 5449 5441 5435 5430 5425 5421 5420 5422 5422 5423 5425 5427 5430 5432 5435 5438
5594 5587 5579 5573 5567 5561 5556 5551 5546 5541 5534 5528 5523 5517 5512 5507 5500 5493 5487 5481 5476 5470 5465 5459 5454 5448 5442 5436 5430 5425 5421 5417 5414 5412 5414 5415 5417 5419 5420 5423 5426 5429 5432
5577 5569 5562 5556 5551 5545 5541 5537 5532 5526 5521 5514 5508 5503 5497 5490 5481 5474 5469 5466 5460 5455 5451 5446 5442 5437 5432 5426 5422 5418 5414 5411 5409 5408 5409 5411 5413 5415 5416 5418 5421 5425 5429
5558 5552 5546 5541 5536 5531 5527 5522 5517 5511 5505 5499 5493 5487 5481 5473 5464 5459 5453 5449 5445 5442 5439 5435 5431 5427 5424 5420 5417 5414 5411 5409 5408 5407 5408 5409 5412 5413 5415 5416 5418 5421 5426
5542 5536 5531 5527 5523 5518 5513 5508 5502 5496 5490 5484 5479 5473 5466 5458 5451 5446 5441 5436 5433 5431 5428 5426 5423 5421 5417 5415 5413 5411 5410 5409 5409 5408 5409 5411 5412 5413 5414 5417 5419 5421 5424
5527 5522 5518 5515 5511 5506 5499 5493 5486 5481 5475 5470 5465 5458 5453 5446 5439 5434 5429 5426 5424 5422 5420 5418 5416 5415 5413 5410 5409 5410 5411 5412 5412 5412 5411 5413 5413 5415 5416 5418 5421 5423 5425
5515 5510 5506 5502 5497 5491 5484 5477 5471 5466 5461 5456 5450 5445 5441 5435 5428 5423 5417 5416 5415 5414 5413 5413 5411 5410 5409 5407 5408 5411 5413 5414 5415 5415 5415 5415 5416 5417 5419 5420 5423 5425 5427
5503 5498 5493 5488 5483 5476 5469 5463 5458 5454 5448 5444 5439 5434 5428 5424 5418 5412 5407 5407 5408 5407 5408 5409 5409 5408 5407 5408 5409 5412 5415 5416 5417 5418 5418 5418 5419 5420 5421 5422 5423 5425 5426
5492 5486 5481 5475 5470 5463 5457 5451 5446 5441 5436 5431 5427 5422 5418 5413 5408 5403 5400 5400 5400 5402 5404 5406 5407 5407 5407 5409 5410 5413 5414 5416 5417 5418 5419 5420 5421 5421 5421 5421 5421 5422 5422
5480 5474 5468 5463 5459 5453 5447 5440 5434 5429 5425 5420 5415 5411 5407 5403 5399 5396 5395 5395 5396 5398 5402 5404 5405 5406 5408 5410 5412 5413 5415 5417 5419 5420 5420 5420 5420 5420 5420 5420 5420 5419 5419
5469 5463 5458 5453 5446 5441 5435 5429 5423 5418 5413 5408 5404 5399 5396 5394 5392 5390 5391 5393 5395 5398 5400 5403 5405 5408 5410 5412 5413 5415 5417 5419 5420 5421 5421 5420 5420 5421 5421 5421 5420 5419 5418
5461 5457 5451 5444 5437 5429 5424 5418 5411 5406 5400 5396 5392 5389 5387 5386 5384 5384 5386 5391 5394 5398 5401 5404 5407 5410 5411 5413 5415 5417 5419 5420 5420 5421 5421 5421 5422 5423 5423 5422 5421 5421 5420
5455 5450 5443 5436 5428 5420 5412 5403 5399 5391 5386 5382 5380 5378 5378 5378 5377 5378 5381 5387 5391 5395 5399 5404 5408 5410 5413 5415 5417 5418 5419 5420 5421 5422 5423 5424 5425 5425 5424 5424 5422 5422 5421
5446 5440 5434 5426 5419 5412 5404 5396 5387 5384 5378 5374 5371 5370 5372 5372 5374 5378 5382 5386 5390 5395 5400 5403 5406 5409 5412 5414 5416 5417 5418 5419 5422 5424 5425 5427 5428 5428 5427 5426 5424 5423 5421
5436 5429 5424 5418 5411 5404 5399 5393 5387 5379 5375 5371 5369 5368 5369 5370 5373 5376 5381 5386 5390 5394 5398 5401 5404 5407 5410 5413 5414 5416 5417 5419 5422 5425 5427 5429 5430 5430 5429 5427 5425 5423 5421
5429 5421 5417 5410 5404 5399 5393 5389 5384 5380 5375 5372 5369 5367 5368 5369 5371 5374 5379 5385 5389 5393 5395 5398 5402 5406 5409 5411 5413 5415 5417 5420 5423 5426 5429 5431 5432 5432 5431 5429 5427 5425 5422
5422 5416 5410 5405 5400 5394 5389 5385 5380 5377 5373 5370 5368 5367 5367 5368 5370 5373 5377 5381 5385 5389 5393 5397 5400 5404 5407 5410 5412 5414 5417 5421 5424 5428 5431 5433 5435 5435 5434 5432 5429 5426 5425
5415 5407 5405 5402 5396 5391 5387 5382 5378 5374 5371 5367 5365 5363 5364 5367 5369 5371 5375 5378 5382 5386 5391 5395 5399 5402 5405 5408 5411 5415 5418 5421 5425 5429 5433 5436 5438 5438 5437 5436 5434 5432 5429
5416 5408 5400 5399 5393 5388 5384 5380 5375 5372 5369 5365 5363 5360 5361 5365 5366 5369 5372 5376 5381 5385 5389 5394 5398 5401 5405 5408 5411 5414 5418 5421 5426 5430 5434 5438 5441 5442 5442 5441 5440 5438 5436
5416 5410 5403 5398 5391 5386 5382 5378 5375 5372 5369 5366 5365 5364 5363 5365 5366 5369 5372 5376 5381 5385 5389 5393 5397 5401 5405 5408 5411 5414 5417 5421 5426 5431 5436 5440 5443 5444 5445 5445 5443 5442 5440
5415 5410 5403 5396 5391 5384 5382 5379 5376 5373 5370 5368 5366 5366 5365 5366 5367 5370 5373 5377 5382 5386 5390 5394 5398 5401 5405 5409 5412 5414 5417 5420 5425 5430 5436 5441 5444 5445 5446 5446 5445 5444 5443
5415 5409 5402 5395 5390 5385 5382 5378 5376 5374 5372 5370 5369 5368 5368 5368 5369 5372 5375 5379 5384 5388 5392 5395 5399 5402 5407 5410 5413 5416 5418 5422 5427 5432 5437 5441 5444 5446 5446 5446 5446 5445 5444
5414 5407 5400 5394 5389 5385 5382 5378 5377 5375 5374 5373 5372 5371 5371 5372 5373 5375 5378 5382 5386 5390 5393 5397 5400 5404 5408 5411 5414 5417 5421 5426 5430 5434 5438 5442 5445 5446 5447 5447 5447 5447 5446
5414 5407 5400 5394 5388 5385 5382 5380 5378 5377 5376 5376 5376 5375 5375 5375 5376 5378 5381 5384 5388 5391 5395 5398 5402 5405 5408 5412 5415 5419 5424 5429 5433 5437 5441 5443 5445 5446 5447 5448 5448 5448 5448